Zurück zum Katalog

SL-6 R/B(2)

AktivHEO
NORAD 18704·ROCKET BODY·🇷🇺 Russia

Gestartet Dec 21, 1987 von Plesetsk Cosmodrome

Loading…

Nächste Überflüge (nächste 24 Stunden)

TLE

AktuellSource: Space-Track

Epoche: Sep 10, 2026, 20:37 UTC

1 18704U 87105D   26253.85919083 -.00000149  00000-0  00000-0 0  9997
2 18704  67.6640 260.6050 5620865  52.4362 346.5544  2.04200898252603

Verfolge SL-6 R/B(2) in Echtzeit mit AllMySat

Download on the App Store